Satellite: COMPASS
Catalog number: 32787
Epoch time:      09120.75935354
Element set:     344
Inclination:      097.9441 deg
RA of node:       184.9754 deg
Eccentricity:    0.0015642
Arg of perigee:   182.2957 deg
Mean anomaly:     177.8184 deg
Mean motion:   14.81587813 rev/day
Decay rate:       3.32e-06 rev/day^2
Epoch rev:            5442
Checksum:              329

Satellite: FALCON
Catalog number: 30776
Epoch time:      09120.81002071
Element set:     557
Inclination:      035.4341 deg
RA of node:       026.8494 deg
Eccentricity:    0.0001737
Arg of perigee:   262.9556 deg
Mean anomaly:     097.0963 deg
Mean motion:   15.03226017 rev/day
Decay rate:       3.13e-06 rev/day^2
Epoch rev:           11796
Checksum:              278

Satellite: HUBBLE
Catalog number: 20580
Epoch time:      09120.82820089
Element set:     377
Inclination:      028.4685 deg
RA of node:       051.3398 deg
Eccentricity:    0.0003901
Arg of perigee:   159.8542 deg
Mean anomaly:     200.2206 deg
Mean motion:   15.00478951 rev/day
Decay rate:       3.00e-06 rev/day^2
Epoch rev:           84273
Checksum:              278

Satellite: ISS
Catalog number: 25544
Epoch time:      09120.90148148
Element set:     772
Inclination:      051.6396 deg
RA of node:       189.3708 deg
Eccentricity:    0.0009000
Arg of perigee:   309.9180 deg
Mean anomaly:     027.5376 deg
Mean motion:   15.72517156 rev/day
Decay rate:      9.021e-05 rev/day^2
Epoch rev:           59850
Checksum:              305

/EX





More information about the Keps mailing list